Orbital Elements
Epoch 2024 Oct. 17.0 TT = JDT 2460600.5
T 2024 May 19.18351 TT Rudenko
q 1.6778854 (2000.0) P Q
n 0.13666689 Peri. 1.46520 +0.82418838 +0.55438678
a 3.7327351 Node 324.07087 -0.52156813 +0.66353221
e 0.5504944 Incl. 11.36428 -0.22063589 +0.50237467
P 7.21
From 93 observations 2002 July 6-2024 Sept. 30, mean residual 0".4.
|